Year,Month,Day,Hour,Minute,Value (Times are PST for temperature in C)
2012,07,05,00,00,12.20
2012,07,05,00,01,12.20
2012,07,05,00,02,12.20
2012,07,05,00,03,12.20
2012,07,05,00,04,12.20
2012,07,05,00,05,12.20
2012,07,05,00,06,12.10
2012,07,05,00,07,12.10
2012,07,05,00,08,12.10
2012,07,05,00,09,12.10
2012,07,05,00,10,12.10
2012,07,05,00,11,12.10
2012,07,05,00,12,12.10
2012,07,05,00,13,12.10
2012,07,05,00,14,12.10
2012,07,05,00,15,12.10
2012,07,05,00,16,12.10
2012,07,05,00,17,12.10
2012,07,05,00,18,12.10
2012,07,05,00,19,12.10
2012,07,05,00,20,12.10
2012,07,05,00,21,12.10
2012,07,05,00,22,12.10
2012,07,05,00,23,12.10
2012,07,05,00,24,12.10
2012,07,05,00,25,12.10
2012,07,05,00,26,12.10
2012,07,05,00,27,12.10
2012,07,05,00,28,12.10
2012,07,05,00,29,12.00
2012,07,05,00,30,12.00
2012,07,05,00,31,12.00
2012,07,05,00,32,12.00
2012,07,05,00,33,12.00
2012,07,05,00,34,11.90
2012,07,05,00,35,11.90
2012,07,05,00,36,11.90
2012,07,05,00,37,11.90
2012,07,05,00,38,11.90
2012,07,05,00,39,11.90
2012,07,05,00,40,11.90
2012,07,05,00,41,11.80
2012,07,05,00,42,11.80
2012,07,05,00,43,11.80
2012,07,05,00,44,11.80
2012,07,05,00,45,11.80
2012,07,05,00,46,11.80
2012,07,05,00,47,11.80
2012,07,05,00,48,11.80
2012,07,05,00,49,11.70
2012,07,05,00,50,11.70
2012,07,05,00,51,11.70
2012,07,05,00,52,11.70
2012,07,05,00,53,11.70
2012,07,05,00,54,11.70
2012,07,05,00,55,11.70
2012,07,05,00,56,11.70
2012,07,05,00,57,11.70
2012,07,05,00,58,11.70
2012,07,05,00,59,11.70
2012,07,05,01,00,11.70
2012,07,05,01,01,11.60
2012,07,05,01,02,11.60
2012,07,05,01,03,11.60
2012,07,05,01,04,11.60
2012,07,05,01,05,11.60
2012,07,05,01,06,11.60
2012,07,05,01,07,11.60
2012,07,05,01,08,11.60
2012,07,05,01,09,11.60
2012,07,05,01,10,11.60
2012,07,05,01,11,11.60
2012,07,05,01,12,11.60
2012,07,05,01,13,11.60
2012,07,05,01,14,11.50
2012,07,05,01,15,11.60
2012,07,05,01,16,11.50
2012,07,05,01,17,11.50
2012,07,05,01,18,11.50
2012,07,05,01,19,11.50
2012,07,05,01,20,11.50
2012,07,05,01,21,11.50
2012,07,05,01,22,11.50
2012,07,05,01,23,11.50
2012,07,05,01,24,11.50
2012,07,05,01,25,11.50
2012,07,05,01,26,11.50
2012,07,05,01,27,11.50
2012,07,05,01,28,11.50
2012,07,05,01,29,11.50
2012,07,05,01,30,11.50
2012,07,05,01,31,11.40
2012,07,05,01,32,11.40
2012,07,05,01,33,11.40
2012,07,05,01,34,11.40
2012,07,05,01,35,11.40
2012,07,05,01,36,11.40
2012,07,05,01,37,11.40
2012,07,05,01,38,11.40
2012,07,05,01,39,11.40
2012,07,05,01,40,11.30
2012,07,05,01,41,11.30
2012,07,05,01,42,11.30
2012,07,05,01,43,11.30
2012,07,05,01,44,11.30
2012,07,05,01,45,11.30
2012,07,05,01,46,11.30
2012,07,05,01,47,11.20
2012,07,05,01,48,11.20
2012,07,05,01,49,11.20
2012,07,05,01,50,11.20
2012,07,05,01,51,11.20
2012,07,05,01,52,11.20
2012,07,05,01,53,11.20
2012,07,05,01,54,11.10
2012,07,05,01,55,11.10
2012,07,05,01,56,11.10
2012,07,05,01,57,11.10
2012,07,05,01,58,11.10
2012,07,05,01,59,11.10
2012,07,05,02,00,11.10
2012,07,05,02,01,11.00
2012,07,05,02,02,11.00
2012,07,05,02,03,11.00
2012,07,05,02,04,11.00
2012,07,05,02,05,10.90
2012,07,05,02,06,10.90
2012,07,05,02,07,10.90
2012,07,05,02,08,10.90
2012,07,05,02,09,10.80
2012,07,05,02,10,10.80
2012,07,05,02,11,10.80
2012,07,05,02,12,10.80
2012,07,05,02,13,10.80
2012,07,05,02,14,10.70
2012,07,05,02,15,10.70
2012,07,05,02,16,10.70
2012,07,05,02,17,10.70
2012,07,05,02,18,10.60
2012,07,05,02,19,10.60
2012,07,05,02,20,10.60
2012,07,05,02,21,10.50
2012,07,05,02,22,10.50
2012,07,05,02,23,10.50
2012,07,05,02,24,10.40
2012,07,05,02,25,10.40
2012,07,05,02,26,10.40
2012,07,05,02,27,10.40
2012,07,05,02,28,10.40
2012,07,05,02,29,10.40
2012,07,05,02,30,10.40
2012,07,05,02,31,10.30
2012,07,05,02,32,10.30
2012,07,05,02,33,10.30
2012,07,05,02,34,10.30
2012,07,05,02,35,10.30
2012,07,05,02,36,10.30
2012,07,05,02,37,10.30
2012,07,05,02,38,10.30
2012,07,05,02,39,10.30
2012,07,05,02,40,10.30
2012,07,05,02,41,10.30
2012,07,05,02,42,10.30
2012,07,05,02,43,10.30
2012,07,05,02,44,10.30
2012,07,05,02,45,10.30
2012,07,05,02,46,10.20
2012,07,05,02,47,10.20
2012,07,05,02,48,10.20
2012,07,05,02,49,10.20
2012,07,05,02,50,10.20
2012,07,05,02,51,10.20
2012,07,05,02,52,10.20
2012,07,05,02,53,10.20
2012,07,05,02,54,10.20
2012,07,05,02,55,10.20
2012,07,05,02,56,10.20
2012,07,05,02,57,10.20
2012,07,05,02,58,10.20
2012,07,05,02,59,10.20
2012,07,05,03,00,10.20
2012,07,05,03,01,10.10
2012,07,05,03,02,10.10
2012,07,05,03,03,10.10
2012,07,05,03,04,10.10
2012,07,05,03,05,10.10
2012,07,05,03,06,10.10
2012,07,05,03,07,10.10
2012,07,05,03,08,10.10
2012,07,05,03,09,10.10
2012,07,05,03,10,10.10
2012,07,05,03,11,10.10
2012,07,05,03,12,10.10
2012,07,05,03,13,10.10
2012,07,05,03,14,10.10
2012,07,05,03,15,10.10
2012,07,05,03,16,10.10
2012,07,05,03,17,10.10
2012,07,05,03,18,10.10
2012,07,05,03,19,10.10
2012,07,05,03,20,10.10
2012,07,05,03,21,10.10
2012,07,05,03,22,10.10
2012,07,05,03,23,10.10
2012,07,05,03,24,10.10
2012,07,05,03,25,10.10
2012,07,05,03,26,10.10
2012,07,05,03,27,10.10
2012,07,05,03,28,10.10
2012,07,05,03,29,10.10
2012,07,05,03,30,10.10
2012,07,05,03,31,10.10
2012,07,05,03,32,10.10
2012,07,05,03,33,10.10
2012,07,05,03,34,10.10
2012,07,05,03,35,10.10
2012,07,05,03,36,10.10
2012,07,05,03,37,10.10
2012,07,05,03,38,10.10
2012,07,05,03,39,10.10
2012,07,05,03,40,10.10
2012,07,05,03,41,10.10
2012,07,05,03,42,10.10
2012,07,05,03,43,10.10
2012,07,05,03,44,10.10
2012,07,05,03,45,10.10
2012,07,05,03,46,10.10
2012,07,05,03,47,10.10
2012,07,05,03,48,10.10
2012,07,05,03,49,10.10
2012,07,05,03,50,10.10
2012,07,05,03,51,10.10
2012,07,05,03,52,10.10
2012,07,05,03,53,10.00
2012,07,05,03,54,10.00
2012,07,05,03,55,10.00
2012,07,05,03,56,10.00
2012,07,05,03,57,10.00
2012,07,05,03,58,10.00
2012,07,05,03,59,10.00
2012,07,05,04,00,10.00
2012,07,05,04,01,10.00
2012,07,05,04,02,10.00
2012,07,05,04,03,10.00
2012,07,05,04,04,10.00
2012,07,05,04,05,9.90
2012,07,05,04,06,9.90
2012,07,05,04,07,9.90
2012,07,05,04,08,9.90
2012,07,05,04,09,9.90
2012,07,05,04,10,9.90
2012,07,05,04,11,9.90
2012,07,05,04,12,9.90
2012,07,05,04,13,9.90
2012,07,05,04,14,9.90
2012,07,05,04,15,9.90
2012,07,05,04,16,9.90
2012,07,05,04,17,9.90
2012,07,05,04,18,9.90
2012,07,05,04,19,9.90
2012,07,05,04,20,9.90
2012,07,05,04,21,9.90
2012,07,05,04,22,9.90
2012,07,05,04,23,9.80
2012,07,05,04,24,9.80
2012,07,05,04,25,9.80
2012,07,05,04,26,9.80
2012,07,05,04,27,9.80
2012,07,05,04,28,9.80
2012,07,05,04,29,9.80
2012,07,05,04,30,9.80
2012,07,05,04,31,9.80
2012,07,05,04,32,9.90
2012,07,05,04,33,9.90
2012,07,05,04,34,9.90
2012,07,05,04,35,9.90
2012,07,05,04,36,9.90
2012,07,05,04,37,9.90
2012,07,05,04,38,9.90
2012,07,05,04,39,9.90
2012,07,05,04,40,9.90
2012,07,05,04,41,9.90
2012,07,05,04,42,9.90
2012,07,05,04,43,9.90
2012,07,05,04,44,9.90
2012,07,05,04,45,9.90
2012,07,05,04,46,9.90
2012,07,05,04,47,9.90
2012,07,05,04,48,9.90
2012,07,05,04,49,9.90
2012,07,05,04,50,9.90
2012,07,05,04,51,9.90
2012,07,05,04,52,9.90
2012,07,05,04,53,9.90
2012,07,05,04,54,9.90
2012,07,05,04,55,9.90
2012,07,05,04,56,9.90
2012,07,05,04,57,10.00
2012,07,05,04,58,10.00
2012,07,05,04,59,10.00
2012,07,05,05,00,10.00
2012,07,05,05,01,10.00
2012,07,05,05,02,10.00
2012,07,05,05,03,10.00
2012,07,05,05,04,10.00
2012,07,05,05,05,10.00
2012,07,05,05,06,10.00
2012,07,05,05,07,10.00
2012,07,05,05,08,10.00
2012,07,05,05,09,10.00
2012,07,05,05,10,10.00
2012,07,05,05,11,10.00
2012,07,05,05,12,10.00
2012,07,05,05,13,10.00
2012,07,05,05,14,10.10
2012,07,05,05,15,10.00
2012,07,05,05,16,10.00
2012,07,05,05,17,10.00
2012,07,05,05,18,10.00
2012,07,05,05,19,10.00
2012,07,05,05,20,10.00
2012,07,05,05,21,10.00
2012,07,05,05,22,10.00
2012,07,05,05,23,10.00
2012,07,05,05,24,10.00
2012,07,05,05,25,10.00
2012,07,05,05,26,10.00
2012,07,05,05,27,10.00
2012,07,05,05,28,10.00
2012,07,05,05,29,10.00
2012,07,05,05,30,10.00
2012,07,05,05,31,10.00
2012,07,05,05,32,10.00
2012,07,05,05,33,10.00
2012,07,05,05,34,10.00
2012,07,05,05,35,10.00
2012,07,05,05,36,10.00
2012,07,05,05,37,10.00
2012,07,05,05,38,10.10
2012,07,05,05,39,10.10
2012,07,05,05,40,10.00
2012,07,05,05,41,10.10
2012,07,05,05,42,10.00
2012,07,05,05,43,10.00
2012,07,05,05,44,10.00
2012,07,05,05,45,10.00
2012,07,05,05,46,10.00
2012,07,05,05,47,10.00
2012,07,05,05,48,10.00
2012,07,05,05,49,10.00
2012,07,05,05,50,10.00
2012,07,05,05,51,10.00
2012,07,05,05,52,10.00
2012,07,05,05,53,10.00
2012,07,05,05,54,10.00
2012,07,05,05,55,10.00
2012,07,05,05,56,10.00
2012,07,05,05,57,9.90
2012,07,05,05,58,9.90
2012,07,05,05,59,9.90
2012,07,05,06,00,9.90
2012,07,05,06,01,9.90
2012,07,05,06,02,10.00
2012,07,05,06,03,10.00
2012,07,05,06,04,10.00
2012,07,05,06,05,10.00
2012,07,05,06,06,10.00
2012,07,05,06,07,10.10
2012,07,05,06,08,10.10
2012,07,05,06,09,10.10
2012,07,05,06,10,10.20
2012,07,05,06,11,10.30
2012,07,05,06,12,10.30
2012,07,05,06,13,10.30
2012,07,05,06,14,10.30
2012,07,05,06,15,10.40
2012,07,05,06,16,10.40
2012,07,05,06,17,10.40
2012,07,05,06,18,10.50
2012,07,05,06,19,10.50
2012,07,05,06,20,10.60
2012,07,05,06,21,10.60
2012,07,05,06,22,10.60
2012,07,05,06,23,10.70
2012,07,05,06,24,10.70
2012,07,05,06,25,10.80
2012,07,05,06,26,10.80
2012,07,05,06,27,10.80
2012,07,05,06,28,10.80
2012,07,05,06,29,10.80
2012,07,05,06,30,10.90
2012,07,05,06,31,11.00
2012,07,05,06,32,11.00
2012,07,05,06,33,11.10
2012,07,05,06,34,11.10
2012,07,05,06,35,11.10
2012,07,05,06,36,11.20
2012,07,05,06,37,11.20
2012,07,05,06,38,11.20
2012,07,05,06,39,11.30
2012,07,05,06,40,11.30
2012,07,05,06,41,11.30
2012,07,05,06,42,11.40
2012,07,05,06,43,11.40
2012,07,05,06,44,11.50
2012,07,05,06,45,11.50
2012,07,05,06,46,11.60
2012,07,05,06,47,11.60
2012,07,05,06,48,11.70
2012,07,05,06,49,11.80
2012,07,05,06,50,11.80
2012,07,05,06,51,11.80
2012,07,05,06,52,11.90
2012,07,05,06,53,11.90
2012,07,05,06,54,11.90
2012,07,05,06,55,12.00
2012,07,05,06,56,12.00
2012,07,05,06,57,12.10
2012,07,05,06,58,12.10
2012,07,05,06,59,12.10
2012,07,05,07,00,12.20
2012,07,05,07,01,12.20
2012,07,05,07,02,12.20
2012,07,05,07,03,12.30
2012,07,05,07,04,12.40
2012,07,05,07,05,12.40
2012,07,05,07,06,12.50
2012,07,05,07,07,12.50
2012,07,05,07,08,12.60
2012,07,05,07,09,12.60
2012,07,05,07,10,12.70
2012,07,05,07,11,12.70
2012,07,05,07,12,12.80
2012,07,05,07,13,12.80
2012,07,05,07,14,12.90
2012,07,05,07,15,13.00
2012,07,05,07,16,13.10
2012,07,05,07,17,13.20
2012,07,05,07,18,13.20
2012,07,05,07,19,13.30
2012,07,05,07,20,13.30
2012,07,05,07,21,13.40
2012,07,05,07,22,13.40
2012,07,05,07,23,13.40
2012,07,05,07,24,13.50
2012,07,05,07,25,13.50
2012,07,05,07,26,13.60
2012,07,05,07,27,13.60
2012,07,05,07,28,13.60
2012,07,05,07,29,13.70
2012,07,05,07,30,13.70
2012,07,05,07,31,13.70
2012,07,05,07,32,13.60
2012,07,05,07,33,13.60
2012,07,05,07,34,13.60
2012,07,05,07,35,13.60
2012,07,05,07,36,13.50
2012,07,05,07,37,13.50
2012,07,05,07,38,13.50
2012,07,05,07,39,13.50
2012,07,05,07,40,13.50
2012,07,05,07,41,13.60
2012,07,05,07,42,13.60
2012,07,05,07,43,13.60
2012,07,05,07,44,13.60
2012,07,05,07,45,13.60
2012,07,05,07,46,13.60
2012,07,05,07,47,13.60
2012,07,05,07,48,13.60
2012,07,05,07,49,13.60
2012,07,05,07,50,13.60
2012,07,05,07,51,13.50
2012,07,05,07,52,13.50
2012,07,05,07,53,13.50
2012,07,05,07,54,13.50
2012,07,05,07,55,13.50
2012,07,05,07,56,13.60
2012,07,05,07,57,13.60
2012,07,05,07,58,13.60
2012,07,05,07,59,13.60
2012,07,05,08,00,13.60
2012,07,05,08,01,13.60
2012,07,05,08,02,13.60
2012,07,05,08,03,13.70
2012,07,05,08,04,13.70
2012,07,05,08,05,13.70
2012,07,05,08,06,13.70
2012,07,05,08,07,13.70
2012,07,05,08,08,13.70
2012,07,05,08,09,13.80
2012,07,05,08,10,13.80
2012,07,05,08,11,13.80
2012,07,05,08,12,13.90
2012,07,05,08,13,13.90
2012,07,05,08,14,14.00
2012,07,05,08,15,14.00
2012,07,05,08,16,14.00
2012,07,05,08,17,14.10
2012,07,05,08,18,14.10
2012,07,05,08,19,14.20
2012,07,05,08,20,14.20
2012,07,05,08,21,14.30
2012,07,05,08,22,14.40
2012,07,05,08,23,14.40
2012,07,05,08,24,14.50
2012,07,05,08,25,14.60
2012,07,05,08,26,14.70
2012,07,05,08,27,14.80
2012,07,05,08,28,14.80
2012,07,05,08,29,14.90
2012,07,05,08,30,14.90
2012,07,05,08,31,15.00
2012,07,05,08,32,15.00
2012,07,05,08,33,15.10
2012,07,05,08,34,15.10
2012,07,05,08,35,15.10
2012,07,05,08,36,15.20
2012,07,05,08,37,15.20
2012,07,05,08,38,15.30
2012,07,05,08,39,15.40
2012,07,05,08,40,15.40
2012,07,05,08,41,15.40
2012,07,05,08,42,15.40
2012,07,05,08,43,15.30
2012,07,05,08,44,15.20
2012,07,05,08,45,15.10
2012,07,05,08,46,15.00
2012,07,05,08,47,14.80
2012,07,05,08,48,14.70
2012,07,05,08,49,14.60
2012,07,05,08,50,14.60
2012,07,05,08,51,14.50
2012,07,05,08,52,14.50
2012,07,05,08,53,14.50
2012,07,05,08,54,14.40
2012,07,05,08,55,14.40
2012,07,05,08,56,14.40
2012,07,05,08,57,14.30
2012,07,05,08,58,14.30
2012,07,05,08,59,14.30
2012,07,05,09,00,14.20
2012,07,05,09,01,14.20
2012,07,05,09,02,14.20
2012,07,05,09,03,14.20
2012,07,05,09,04,14.10
2012,07,05,09,05,14.10
2012,07,05,09,06,14.10
2012,07,05,09,07,14.10
2012,07,05,09,08,14.10
2012,07,05,09,09,14.00
2012,07,05,09,10,14.00
2012,07,05,09,11,14.00
2012,07,05,09,12,13.90
2012,07,05,09,13,13.90
2012,07,05,09,14,13.90
2012,07,05,09,15,13.90
2012,07,05,09,16,13.90
2012,07,05,09,17,13.90
2012,07,05,09,18,13.90
2012,07,05,09,19,13.90
2012,07,05,09,20,13.90
2012,07,05,09,21,14.00
2012,07,05,09,22,14.00
2012,07,05,09,23,14.00
2012,07,05,09,24,14.00
2012,07,05,09,25,14.00
2012,07,05,09,26,13.90
2012,07,05,09,27,13.90
2012,07,05,09,28,13.90
2012,07,05,09,29,13.80
2012,07,05,09,30,13.70
2012,07,05,09,31,13.70
2012,07,05,09,32,13.70
2012,07,05,09,33,13.70
2012,07,05,09,34,13.80
2012,07,05,09,35,13.80
2012,07,05,09,36,13.80
2012,07,05,09,37,13.90
2012,07,05,09,38,14.00
2012,07,05,09,39,14.10
2012,07,05,09,40,14.10
2012,07,05,09,41,14.20
2012,07,05,09,42,14.20
2012,07,05,09,43,14.20
2012,07,05,09,44,14.30
2012,07,05,09,45,14.30
2012,07,05,09,46,14.40
2012,07,05,09,47,14.40
2012,07,05,09,48,14.30
2012,07,05,09,49,14.40
2012,07,05,09,50,14.30
2012,07,05,09,51,14.30
2012,07,05,09,52,14.30
2012,07,05,09,53,14.30
2012,07,05,09,54,14.30
2012,07,05,09,55,14.20
2012,07,05,09,56,14.10
2012,07,05,09,57,14.00
2012,07,05,09,58,13.90
2012,07,05,09,59,13.90
2012,07,05,10,00,13.80
2012,07,05,10,01,13.80
2012,07,05,10,02,13.80
2012,07,05,10,03,13.80
2012,07,05,10,04,13.90
2012,07,05,10,05,13.90
2012,07,05,10,06,13.90
2012,07,05,10,07,13.80
2012,07,05,10,08,13.80
2012,07,05,10,09,13.80
2012,07,05,10,10,13.80
2012,07,05,10,11,13.80
2012,07,05,10,12,13.80
2012,07,05,10,13,13.80
2012,07,05,10,14,13.80
2012,07,05,10,15,13.80
2012,07,05,10,16,13.80
2012,07,05,10,17,13.90
2012,07,05,10,18,13.90
2012,07,05,10,19,13.90
2012,07,05,10,20,13.80
2012,07,05,10,21,13.80
2012,07,05,10,22,13.80
2012,07,05,10,23,13.80
2012,07,05,10,24,13.90
2012,07,05,10,25,13.90
2012,07,05,10,26,13.90
2012,07,05,10,27,13.90
2012,07,05,10,28,13.90
2012,07,05,10,29,13.90
2012,07,05,10,30,13.90
2012,07,05,10,31,13.90
2012,07,05,10,32,13.90
2012,07,05,10,33,14.00
2012,07,05,10,34,14.00
2012,07,05,10,35,14.00
2012,07,05,10,36,14.10
2012,07,05,10,37,14.20
2012,07,05,10,38,14.30
2012,07,05,10,39,14.40
2012,07,05,10,40,14.50
2012,07,05,10,41,14.70
2012,07,05,10,42,14.80
2012,07,05,10,43,14.90
2012,07,05,10,44,15.00
2012,07,05,10,45,15.00
2012,07,05,10,46,15.10
2012,07,05,10,47,15.20
2012,07,05,10,48,15.20
2012,07,05,10,49,15.30
2012,07,05,10,50,15.40
2012,07,05,10,51,15.50
2012,07,05,10,52,15.50
2012,07,05,10,53,15.60
2012,07,05,10,54,15.60
2012,07,05,10,55,15.60
2012,07,05,10,56,15.60
2012,07,05,10,57,15.50
2012,07,05,10,58,15.50
2012,07,05,10,59,15.50
2012,07,05,11,00,15.40
2012,07,05,11,01,15.40
2012,07,05,11,02,15.40
2012,07,05,11,03,15.40
2012,07,05,11,04,15.40
2012,07,05,11,05,15.40
2012,07,05,11,06,15.40
2012,07,05,11,07,15.30
2012,07,05,11,08,15.30
2012,07,05,11,09,15.20
2012,07,05,11,10,15.10
2012,07,05,11,11,15.00
2012,07,05,11,12,15.00
2012,07,05,11,13,15.00
2012,07,05,11,14,15.10
2012,07,05,11,15,15.10
2012,07,05,11,16,15.10
2012,07,05,11,17,15.20
2012,07,05,11,18,15.30
2012,07,05,11,19,15.40
2012,07,05,11,20,15.50
2012,07,05,11,21,15.50
2012,07,05,11,22,15.60
2012,07,05,11,23,15.60
2012,07,05,11,24,15.70
2012,07,05,11,25,15.70
2012,07,05,11,26,15.80
2012,07,05,11,27,15.80
2012,07,05,11,28,15.80
2012,07,05,11,29,15.80
2012,07,05,11,30,15.80
2012,07,05,11,31,15.90
2012,07,05,11,32,16.00
2012,07,05,11,33,16.10
2012,07,05,11,34,16.10
2012,07,05,11,35,16.10
2012,07,05,11,36,16.00
2012,07,05,11,37,15.90
2012,07,05,11,38,15.80
2012,07,05,11,39,15.60
2012,07,05,11,40,15.50
2012,07,05,11,41,15.50
2012,07,05,11,42,15.50
2012,07,05,11,43,15.50
2012,07,05,11,44,15.70
2012,07,05,11,45,15.80
2012,07,05,11,46,15.80
2012,07,05,11,47,15.90
2012,07,05,11,48,15.90
2012,07,05,11,49,15.80
2012,07,05,11,50,15.80
2012,07,05,11,51,15.80
2012,07,05,11,52,15.70
2012,07,05,11,53,15.70
2012,07,05,11,54,15.60
2012,07,05,11,55,15.50
2012,07,05,11,56,15.40
2012,07,05,11,57,15.40
2012,07,05,11,58,15.40
2012,07,05,11,59,15.40
2012,07,05,12,00,15.40
2012,07,05,12,01,15.50
2012,07,05,12,02,15.60
2012,07,05,12,03,15.60
2012,07,05,12,04,15.70
2012,07,05,12,05,15.70
2012,07,05,12,06,15.70
2012,07,05,12,07,15.70
2012,07,05,12,08,15.70
2012,07,05,12,09,15.70
2012,07,05,12,10,15.70
2012,07,05,12,11,15.60
2012,07,05,12,12,15.60
2012,07,05,12,13,15.60
2012,07,05,12,14,15.60
2012,07,05,12,15,15.60
2012,07,05,12,16,15.70
2012,07,05,12,17,15.70
2012,07,05,12,18,15.80
2012,07,05,12,19,15.80
2012,07,05,12,20,16.00
2012,07,05,12,21,16.10
2012,07,05,12,22,16.20
2012,07,05,12,23,16.30
2012,07,05,12,24,16.40
2012,07,05,12,25,16.60
2012,07,05,12,26,16.70
2012,07,05,12,27,16.80
2012,07,05,12,28,16.90
2012,07,05,12,29,16.90
2012,07,05,12,30,16.90
2012,07,05,12,31,16.90
2012,07,05,12,32,16.90
2012,07,05,12,33,16.90
2012,07,05,12,34,17.00
2012,07,05,12,35,17.10
2012,07,05,12,36,17.10
2012,07,05,12,37,17.10
2012,07,05,12,38,17.10
2012,07,05,12,39,17.00
2012,07,05,12,40,17.00
2012,07,05,12,41,16.90
2012,07,05,12,42,16.80
2012,07,05,12,43,16.70
2012,07,05,12,44,16.70
2012,07,05,12,45,16.70
2012,07,05,12,46,16.70
2012,07,05,12,47,16.60
2012,07,05,12,48,16.50
2012,07,05,12,49,16.50
2012,07,05,12,50,16.50
2012,07,05,12,51,16.60
2012,07,05,12,52,16.70
2012,07,05,12,53,16.70
2012,07,05,12,54,16.70
2012,07,05,12,55,16.70
2012,07,05,12,56,16.60
2012,07,05,12,57,16.60
2012,07,05,12,58,16.50
2012,07,05,12,59,16.50
2012,07,05,13,00,16.40
2012,07,05,13,01,16.40
2012,07,05,13,02,16.40
2012,07,05,13,03,16.40
2012,07,05,13,04,16.30
2012,07,05,13,05,16.20
2012,07,05,13,06,16.20
2012,07,05,13,07,16.10
2012,07,05,13,08,16.00
2012,07,05,13,09,16.00
2012,07,05,13,10,15.90
2012,07,05,13,11,15.90
2012,07,05,13,12,15.90
2012,07,05,13,13,15.80
2012,07,05,13,14,15.80
2012,07,05,13,15,15.90
2012,07,05,13,16,15.90
2012,07,05,13,17,15.90
2012,07,05,13,18,16.00
2012,07,05,13,19,16.00
2012,07,05,13,20,16.10
2012,07,05,13,21,16.20
2012,07,05,13,22,16.30
2012,07,05,13,23,16.30
2012,07,05,13,24,16.30
2012,07,05,13,25,16.30
2012,07,05,13,26,16.30
2012,07,05,13,27,16.30
2012,07,05,13,28,16.20
2012,07,05,13,29,16.20
2012,07,05,13,30,16.20
2012,07,05,13,31,16.10
2012,07,05,13,32,16.00
2012,07,05,13,33,16.00
2012,07,05,13,34,16.00
2012,07,05,13,35,16.00
2012,07,05,13,36,16.00
2012,07,05,13,37,15.90
2012,07,05,13,38,15.80
2012,07,05,13,39,15.80
2012,07,05,13,40,15.70
2012,07,05,13,41,15.80
2012,07,05,13,42,15.80
2012,07,05,13,43,15.90
2012,07,05,13,44,15.90
2012,07,05,13,45,16.00
2012,07,05,13,46,16.00
2012,07,05,13,47,16.00
2012,07,05,13,48,16.00
2012,07,05,13,49,16.00
2012,07,05,13,50,16.00
2012,07,05,13,51,16.00
2012,07,05,13,52,16.10
2012,07,05,13,53,16.10
2012,07,05,13,54,16.20
2012,07,05,13,55,16.20
2012,07,05,13,56,16.30
2012,07,05,13,57,16.40
2012,07,05,13,58,16.40
2012,07,05,13,59,16.40
2012,07,05,14,00,16.30
2012,07,05,14,01,16.20
2012,07,05,14,02,16.10
2012,07,05,14,03,16.10
2012,07,05,14,04,16.10
2012,07,05,14,05,16.00
2012,07,05,14,06,16.10
2012,07,05,14,07,16.10
2012,07,05,14,08,16.20
2012,07,05,14,09,16.20
2012,07,05,14,10,16.30
2012,07,05,14,11,16.30
2012,07,05,14,12,16.30
2012,07,05,14,13,16.30
2012,07,05,14,14,16.30
2012,07,05,14,15,16.20
2012,07,05,14,16,16.20
2012,07,05,14,17,16.20
2012,07,05,14,18,16.20
2012,07,05,14,19,16.20
2012,07,05,14,20,16.20
2012,07,05,14,21,16.20
2012,07,05,14,22,16.20
2012,07,05,14,23,16.20
2012,07,05,14,24,16.20
2012,07,05,14,25,16.30
2012,07,05,14,26,16.30
2012,07,05,14,27,16.30
2012,07,05,14,28,16.30
2012,07,05,14,29,16.40
2012,07,05,14,30,16.40
2012,07,05,14,31,16.50
2012,07,05,14,32,16.40
2012,07,05,14,33,16.40
2012,07,05,14,34,16.30
2012,07,05,14,35,16.30
2012,07,05,14,36,16.20
2012,07,05,14,37,16.20
2012,07,05,14,38,16.20
2012,07,05,14,39,16.20
2012,07,05,14,40,16.30
2012,07,05,14,41,16.30
2012,07,05,14,42,16.20
2012,07,05,14,43,16.20
2012,07,05,14,44,16.20
2012,07,05,14,45,16.10
2012,07,05,14,46,16.10
2012,07,05,14,47,16.10
2012,07,05,14,48,16.20
2012,07,05,14,49,16.20
2012,07,05,14,50,16.20
2012,07,05,14,51,16.20
2012,07,05,14,52,16.20
2012,07,05,14,53,16.30
2012,07,05,14,54,16.30
2012,07,05,14,55,16.40
2012,07,05,14,56,16.50
2012,07,05,14,57,16.50
2012,07,05,14,58,16.50
2012,07,05,14,59,16.50
2012,07,05,15,00,16.40
2012,07,05,15,01,16.40
2012,07,05,15,02,16.40
2012,07,05,15,03,16.50
2012,07,05,15,04,16.60
2012,07,05,15,05,16.60
2012,07,05,15,06,16.60
2012,07,05,15,07,16.70
2012,07,05,15,08,16.70
2012,07,05,15,09,16.70
2012,07,05,15,10,16.80
2012,07,05,15,11,16.80
2012,07,05,15,12,16.90
2012,07,05,15,13,16.90
2012,07,05,15,14,17.00
2012,07,05,15,15,17.00
2012,07,05,15,16,17.00
2012,07,05,15,17,16.90
2012,07,05,15,18,16.90
2012,07,05,15,19,16.90
2012,07,05,15,20,16.80
2012,07,05,15,21,16.80
2012,07,05,15,22,16.70
2012,07,05,15,23,16.70
2012,07,05,15,24,16.70
2012,07,05,15,25,16.80
2012,07,05,15,26,16.80
2012,07,05,15,27,16.90
2012,07,05,15,28,16.90
2012,07,05,15,29,17.00
2012,07,05,15,30,17.10
2012,07,05,15,31,17.10
2012,07,05,15,32,17.10
2012,07,05,15,33,17.10
2012,07,05,15,34,17.10
2012,07,05,15,35,17.00
2012,07,05,15,36,16.90
2012,07,05,15,37,16.90
2012,07,05,15,38,16.90
2012,07,05,15,39,16.90
2012,07,05,15,40,16.90
2012,07,05,15,41,17.00
2012,07,05,15,42,17.10
2012,07,05,15,43,17.10
2012,07,05,15,44,17.20
2012,07,05,15,45,17.20
2012,07,05,15,46,17.20
2012,07,05,15,47,17.20
2012,07,05,15,48,17.10
2012,07,05,15,49,17.20
2012,07,05,15,50,17.20
2012,07,05,15,51,17.20
2012,07,05,15,52,17.30
2012,07,05,15,53,17.30
2012,07,05,15,54,17.30
2012,07,05,15,55,17.40
2012,07,05,15,56,17.40
2012,07,05,15,57,17.40
2012,07,05,15,58,17.50
2012,07,05,15,59,17.60
2012,07,05,16,00,17.70
2012,07,05,16,01,17.70
2012,07,05,16,02,17.70
2012,07,05,16,03,17.70
2012,07,05,16,04,17.70
2012,07,05,16,05,17.70
2012,07,05,16,06,17.70
2012,07,05,16,07,17.70
2012,07,05,16,08,17.80
2012,07,05,16,09,17.80
2012,07,05,16,10,17.80
2012,07,05,16,11,17.90
2012,07,05,16,12,18.00
2012,07,05,16,13,18.10
2012,07,05,16,14,18.20
2012,07,05,16,15,18.20
2012,07,05,16,16,18.30
2012,07,05,16,17,18.30
2012,07,05,16,18,18.30
2012,07,05,16,19,18.40
2012,07,05,16,20,18.50
2012,07,05,16,21,18.50
2012,07,05,16,22,18.60
2012,07,05,16,23,18.60
2012,07,05,16,24,18.60
2012,07,05,16,25,18.60
2012,07,05,16,26,18.60
2012,07,05,16,27,18.60
2012,07,05,16,28,18.60
2012,07,05,16,29,18.60
2012,07,05,16,30,18.60
2012,07,05,16,31,18.60
2012,07,05,16,32,18.50
2012,07,05,16,33,18.50
2012,07,05,16,34,18.50
2012,07,05,16,35,18.50
2012,07,05,16,36,18.50
2012,07,05,16,37,18.40
2012,07,05,16,38,18.50
2012,07,05,16,39,18.50
2012,07,05,16,40,18.60
2012,07,05,16,41,18.60
2012,07,05,16,42,18.70
2012,07,05,16,43,18.80
2012,07,05,16,44,18.80
2012,07,05,16,45,19.00
2012,07,05,16,46,19.00
2012,07,05,16,47,19.00
2012,07,05,16,48,19.00
2012,07,05,16,49,19.00
2012,07,05,16,50,18.90
2012,07,05,16,51,18.90
2012,07,05,16,52,18.80
2012,07,05,16,53,18.80
2012,07,05,16,54,18.80
2012,07,05,16,55,18.80
2012,07,05,16,56,18.70
2012,07,05,16,57,18.60
2012,07,05,16,58,18.50
2012,07,05,16,59,18.50
2012,07,05,17,00,18.40
2012,07,05,17,01,18.40
2012,07,05,17,02,18.40
2012,07,05,17,03,18.50
2012,07,05,17,04,18.50
2012,07,05,17,05,18.50
2012,07,05,17,06,18.50
2012,07,05,17,07,18.50
2012,07,05,17,08,18.60
2012,07,05,17,09,18.60
2012,07,05,17,10,18.70
2012,07,05,17,11,18.70
2012,07,05,17,12,18.70
2012,07,05,17,13,18.60
2012,07,05,17,14,18.50
2012,07,05,17,15,18.40
2012,07,05,17,16,18.40
2012,07,05,17,17,18.40
2012,07,05,17,18,18.40
2012,07,05,17,19,18.30
2012,07,05,17,20,18.30
2012,07,05,17,21,18.30